sat.trackr.live / text

‹ back to catalog

STARLINK-6196

NORAD 56487 · 2023-064AR

PAYLOAD ACTIVE UNKNOWN

§ Identity

Operator
Country
US
Launch date
2023-05-10
Launch site
AFWTR
Launch vehicle
Mass (kg)
RCS (m²)

Purposes: comms

External: N2YO · Heavens-Above · Gunter

§ Orbital elements

Epoch: 2026-05-24T18:41:01.390848Z

Period
96.11 min
Inclination
69.9988°
Eccentricity
0.0003189
Mean motion
14.98322088 rev/d
Perigee alt
569.9 km
Apogee alt
574.3 km
Semi-major
6,950.2 km
B*
-6.3327e-5
RAAN
272.4572°
Arg perigee
261.2046°
Mean anomaly
98.8752°
Rev number
16,763

§ Raw data

STARLINK-61961 56487U 23064AR  26144.77848832 -.00000848  00000+0 -63327-4 0  99952 56487  69.9988 272.4572 0003189 261.2046  98.8752 14.98322088167639

JSON: /api/v1/satellites/56487 · /tle

For live sub-satellite position, see the globe view (requires WebGL).

§ Visibility from observer

Set your observer location to see the next 7 days of passes ≥ 10°. The values pass through the URL so the page stays shareable.

No JS? Fill the form by hand. The geolocation button needs JavaScript.